Preview of NWS' New Version of Forecast
This preview is not operational and should not be used for support decisions.

Regional Weather Roundup (RWR)

Issued by National Weather Service (NWS)

                            
000
ASCA42 TJSJ 231810
RWRPR 
PUERTO RICO/U.S. VIRGIN ISLANDS HOURLY WEATHER ROUNDUP
NATIONAL WEATHER SERVICE SAN JUAN PR
200 PM AST SAT MAR 23 2019

PRZ001>002-007>008-010-231900-
PUERTO RICO
  
CITY           SKY/WX    TMP DP  RH WIND       PRES   REMARKS
SAN JUAN LMM   MOSUNNY   82  70  65 E16       30.06F                  
AGUADILLA      PTSUNNY   81  70  69 NE17      30.07F                  
CEIBA          SUNNY     86  70  58 E13       30.08F HX  90           
$$

VIZ001>002-231900-
U.S. VIRGIN ISLANDS
  
CITY           SKY/WX    TMP DP  RH WIND       PRES   REMARKS
CHARLOTTE AMA  MOSUNNY   84  70  61 SE14      30.05F                  
$$

HOURLY WEATHER ROUNDUP FOR THE NEWS MEDIA
  
CITY           SKY/WX    TMP DP  RH WIND       PRES   REMARKS
ORLANDO        FAIR      76  37  24 SE6       30.21F                  
NEW YORK       FAIR      47  23  38 W29G43    29.91R                  
NEWARK         FAIR      47  19  33 W28G39    29.92R                  
CHICAGO        FAIR      48  24  39 VRB5      30.30F                  
HARTFORD       FAIR      46  27  47 W24G35    29.64R                  
BOSTON         PTSUNNY   47  26  44 W24G39    29.61R                  
DALLAS         CLOUDY    67  59  75 S13G23    30.07F                  
PHILADELPHIA   FAIR      49  14  24 NW16G31   30.02R                  
LOS ANGELES    PTSUNNY   61  50  67 W8        30.17S                  
WASHINGTON DC  FAIR      47  18  31 NW21G28   30.16R